This is the latest recevied weather packets stored in our database for station/object N7CEE. If no packets are shown the sender has not sent any weather packets the latest 10 day(s).
| Time | Temp. | Humidity | Pressure | Rain* | Wind** | Luminosity | Snow |
|---|---|---|---|---|---|---|---|
| 1777174369 | 7.78° C | 37% | 1016.9 hPa | 0 mm | - | 0 W/m² | - |
| 1777174065 | 8.33° C | 37% | 1016.9 hPa | 0 mm | - | 0 W/m² | - |
| 1777173756 | 8.33° C | 37% | 1016.9 hPa | 0 mm | - | 0 W/m² | - |
| 1777173456 | 8.33° C | 37% | 1017.1 hPa | 0 mm | - | 0 W/m² | - |
| 1777173156 | 8.33° C | 39% | 1016.9 hPa | 0 mm | - | 0 W/m² | - |
| 1777172853 | 7.78° C | 41% | 1016.7 hPa | 0 mm | - | 0 W/m² | - |
| 1777172551 | 8.33° C | 40% | 1016.8 hPa | 0 mm | - | 0 W/m² | - |
| 1777172246 | 8.33° C | 41% | 1016.8 hPa | 0 mm | - | 0 W/m² | - |
| 1777171942 | 8.33° C | 42% | 1016.7 hPa | 0 mm | - | 0 W/m² | - |
| 1777171639 | 8.33° C | 43% | 1016.8 hPa | 0 mm | - | 0 W/m² | - |
| 1777171334 | 8.33° C | 43% | 1016.7 hPa | 0 mm | - | 0 W/m² | - |
| 1777171034 | 8.33° C | 43% | 1016.9 hPa | 0 mm | - | 0 W/m² | - |
| 1777170733 | 8.33° C | 43% | 1016.7 hPa | 0 mm | - | 0 W/m² | - |
| 1777170430 | 8.33° C | 43% | 1016.6 hPa | 0 mm | - | 0 W/m² | - |
| 1777170127 | 8.89° C | 43% | 1016.6 hPa | 0 mm | - | 0 W/m² | - |
| 1777169824 | 8.89° C | 43% | 1016.5 hPa | 0 mm | - | 1 W/m² | - |
| 1777169520 | 8.89° C | 42% | 1016.7 hPa | 0 mm | - | 1 W/m² | - |
| 1777169215 | 8.89° C | 42% | 1016.7 hPa | 0 mm | - | 3 W/m² | - |
| 1777168911 | 8.89° C | 42% | 1016.9 hPa | 0 mm | - | 4 W/m² | - |
| 1777168608 | 8.89° C | 43% | 1016.9 hPa | 0 mm | - | 6 W/m² | - |
| 1777168304 | 8.89° C | 43% | 1016.8 hPa | 0 mm | - | 8 W/m² | - |
| 1777168002 | 9.44° C | 42% | 1016.7 hPa | 0 mm | - | 13 W/m² | - |
| 1777167698 | 9.44° C | 42% | 1016.7 hPa | 0 mm | - | 11 W/m² | - |
| 1777167393 | 9.44° C | 42% | 1016.7 hPa | 0 mm | - | 14 W/m² | - |
| 1777167088 | 9.44° C | 42% | 1016.6 hPa | 0 mm | - | 15 W/m² | - |
* Rain latest hour (hover to see other rain measurements)
** Current wind speed in m/s (hover to see current wind gust speed)